Cozumel, Mexico

5:52 AM EST on June 27, 2017 (GMT -0500)
Cozumel

Weather History for MMCZ - March, 2013

Change the Weather History Date:

Wednesday, March 13, 2013

  Actual Average Record
Temperature  
Mean Temperature 72 °F -  
Max Temperature 75 °F 84 °F 87 °F (2001)
Min Temperature 68 °F 72 °F 60 °F (2009)
Cooling Degree Days 6    
Growing Degree Days 22 (Base 50)    
Moisture  
Dew Point 58 °F    
Average Humidity 65    
Maximum Humidity 94    
Minimum Humidity 47    
Precipitation  
Precipitation 0.00 in - - ()
Sea Level Pressure  
Sea Level Pressure 30.09 in    
Wind  
Wind Speed 11 mph ()    
Max Wind Speed 17 mph    
Max Gust Speed -    
Visibility 7.5 miles    
Events      
Averages and records for this station are not official NWS values.
T = Trace of Precipitation, MM = Missing Value Source: Averaged Metar Reports

Daily Weather History Graph

Daily Weather History Graph

Search for Another Location

Airport or City:

Trip Planner

Search our weather history database for the weather conditions in past years. The results will help you decide how hot, cold, wet, or windy it might be!

Date:

Astronomy

Mar. 13, 2013 Rise Set
Actual Time 5:57 AM CST 5:56 PM CST
Civil Twilight 5:35 AM CST 6:18 PM CST
Nautical Twilight 5:10 AM CST 6:44 PM CST
Astronomical Twilight 4:44 AM CST 7:10 PM CST
Moon 6:57 AM CST (3/13) 7:48 PM CST (3/13)
Length of Visible Light 12h 43m
Length of Day
11h 59m
Waxing Crescent, 4% of the Moon is Illuminated
Mar 13
Waxing Crescent
Mar 19
First Quarter
Mar 27
Full
Apr 2
Last Quarter
Apr 10
New

Hourly Weather History & Observations

Time (CST) Temp. Dew Point Humidity Pressure Visibility Wind Dir Wind Speed Gust Speed Precip Events Conditions
12:57 AM 68.0 °F 59.0 °F 73% 30.03 in 7.0 mi North 6.9 mph - N/A   Mostly Cloudy
1:40 AM 69.8 °F 59.0 °F 68% 30.02 in 7.0 mi North 13.8 mph - N/A   Mostly Cloudy
2:42 AM 69.8 °F 59.0 °F 68% 30.05 in 7.0 mi North 11.5 mph - N/A   Mostly Cloudy
3:46 AM 69.8 °F 57.2 °F 64% 30.03 in 7.0 mi NNW 17.3 mph - N/A   Mostly Cloudy
4:41 AM 69.8 °F 57.2 °F 64% 30.04 in 7.0 mi North 5.8 mph - N/A   Mostly Cloudy
5:44 AM 69.8 °F 59.0 °F 68% 30.02 in 7.0 mi North 8.1 mph - N/A   Scattered Clouds
6:40 AM 68.0 °F 57.2 °F 68% 30.08 in 7.0 mi North 9.2 mph - N/A   Scattered Clouds
7:50 AM 71.6 °F 57.2 °F 60% 30.11 in 8.0 mi North 16.1 mph - N/A   Mostly Cloudy
8:51 AM 69.8 °F 57.2 °F 64% 30.16 in 8.0 mi North 16.1 mph - N/A   Mostly Cloudy
9:44 AM 73.4 °F 57.2 °F 57% 30.14 in 8.0 mi North 13.8 mph - N/A   Mostly Cloudy
10:49 AM 75.2 °F 53.6 °F 47% 30.15 in 8.0 mi North 13.8 mph - N/A   Mostly Cloudy
11:50 AM 75.2 °F 55.4 °F 50% 30.10 in 8.0 mi North 11.5 mph - N/A   Mostly Cloudy
12:47 PM 75.2 °F 73.4 °F 94% 30.10 in 8.0 mi NNE 16.1 mph - N/A   Mostly Cloudy
1:52 PM 75.2 °F 53.6 °F 47% 30.08 in 8.0 mi NNE 13.8 mph - N/A   Mostly Cloudy
2:40 PM 73.4 °F 69.8 °F 88% 30.09 in 8.0 mi NNE 13.8 mph - N/A   Mostly Cloudy
3:40 PM 73.4 °F 53.6 °F 50% 30.07 in 8.0 mi NE 13.8 mph - N/A   Mostly Cloudy
4:44 PM 71.6 °F 51.8 °F 50% 30.09 in 8.0 mi NE 17.3 mph - N/A   Mostly Cloudy
5:49 PM 71.6 °F 51.8 °F 50% 30.06 in 8.0 mi NNE 16.1 mph - N/A   Mostly Cloudy
6:48 PM 69.8 °F 59.0 °F 68% 30.12 in 7.0 mi NNE 13.8 mph - N/A   Scattered Clouds
7:51 PM 68.0 °F 59.0 °F 73% 30.13 in 7.0 mi NNE 16.1 mph - N/A   Scattered Clouds
8:41 PM 68.0 °F 60.8 °F 78% 30.17 in 7.0 mi NNE 13.8 mph - N/A   Scattered Clouds
9:55 PM 69.8 °F 60.8 °F 73% 30.16 in 7.0 mi SE 11.5 mph - N/A   Scattered Clouds
10:46 PM 69.8 °F 57.2 °F 64% 30.15 in 7.0 mi East 9.2 mph - N/A   Scattered Clouds
11:50 PM 69.8 °F 59.0 °F 68% 30.10 in 7.0 mi ESE 9.2 mph - N/A   Scattered Clouds